Location: ???
(30.4832°N, 114.1966°E)
Time: 01:32:09
(UTC+00:00)

Daily predictions for brighter satellites

Satellite Brightness Start Highest point End
(mag) Time Altitude Azimuth Time Altitude Azimuth Time Altitude Azimuth
SEDSat Delta rocket 3.8 11:42:46 10° SW 11:47:35 46° SSE 11:53:05 10° E
OAO 2 Rocket 3.7 11:43:25 10° WNW 11:48:35 65° NNE 11:53:50 10° E
H-2A R/B 2.2 11:43:11 10° SSE 11:48:37 77° ENE 11:54:02 10° N
